QPF
0.00 0.00 0.00 0.00 0.00 0.00 0.00 0.00 0.00 0.00 0.00 0.00 0.00 0.00 0.00 0.00 0.00 0.00 0.00 0.00 0.00 0.00 0.00 0.00 0.00 0.00 0.00 0.00 0.00 0.00 0.00 0.00 0.00 0.00 0.00 0.00 0.00 0.00 0.00 0.00 0.00 0.00 0.00 0.00
0.00 0.00 0.00 0.00 0.00 0.00 0.00 0.00 0.00 0.00 0.00 0.00 0.00 0.00 0.00 0.00 0.00 0.00 0.00 0.00 0.00 0.00 0.00 0.00 0.00 0.00 0.00 0.00 0.00 0.00 0.00 0.00 0.00 0.00 0.00 0.00 0.00 0.00 0.00 0.00 0.00 0.00 0.00 0.00
0.01 0.00 0.00 0.00 0.00 0.00 0.00 0.00 0.00 0.00 0.00 0.00 0.00 0.00 0.00 0.00 0.00 0.00 0.00 0.00 0.00 0.00 0.00 0.00 0.00 0.00 0.00 0.00 0.00 0.00 0.00 0.00 0.00 0.00 0.00 0.00 0.00 0.00 0.00 0.00 0.00 0.00 0.00 0.00
0.02 0.02 0.01 0.00 0.00 0.00 0.00 0.00 0.00 0.00 0.00 0.00 0.00 0.00 0.00 0.00 0.00 0.00 0.00 0.00 0.00 0.00 0.00 0.00 0.00 0.00 0.00 0.00 0.00 0.00 0.00 0.00 0.00 0.00 0.00 0.00 0.00 0.00 0.00 0.00 0.00 0.00 0.00 0.00
0.04 0.03 0.01 0.00 0.00 0.00 0.00 0.00 0.00 0.00 0.00 0.00 0.00 0.00 0.00 0.00 0.00 0.00 0.00 0.00 0.00 0.00 0.00 0.00 0.00 0.00 0.00 0.00 0.00 0.00 0.00 0.00 0.00 0.00 0.00 0.00 0.00 0.00 0.00 0.00 0.00 0.00 0.00 0.00
0.04 0.04 0.01 0.00 0.00 0.00 0.00 0.00 0.00 0.00 0.00 0.00 0.00 0.00 0.00 0.00 0.00 0.00 0.00 0.00 0.01 0.00 0.00 0.00 0.00 0.00 0.00 0.00 0.00 0.00 0.00 0.00 0.00 0.00 0.00 0.00 0.00 0.00 0.00 0.00 0.00 0.00 0.00 0.00
0.05 0.05 0.01 0.00 0.00 0.00 0.01 0.01 0.00 0.00 0.00 0.00 0.00 0.00 0.00 0.00 0.01 0.00 0.00 0.00 0.00 0.00 0.00 0.00 0.00 0.00 0.00 0.00 0.00 0.00 0.00 0.00 0.00 0.00 0.00 0.00 0.00 0.00 0.00 0.00 0.00 0.00 0.00 0.00
0.07 0.06 0.03 0.00 0.00 0.01 0.01 0.00 0.00 0.00 0.00 0.00 0.00 0.00 0.00 0.00 0.00 0.00 0.00 0.00 0.00 0.00 0.00 0.00 0.00 0.00 0.00 0.00 0.00 0.00 0.00 0.00 0.00 0.00 0.00 0.00 0.00 0.00 0.00 0.00 0.00 0.00 0.00 0.00
0.04 0.03 0.02 0.01 0.00 0.00 0.00 0.00 0.00 0.00 0.00 0.00 0.00 0.00 0.01 0.01 0.00 0.01 0.01 0.01 0.01 0.01 0.00 0.00 0.00 0.00 0.00 0.00 0.00 0.00 0.00 0.00 0.00 0.00 0.00 0.00 0.00 0.00 0.00 0.00 0.00 0.00 0.00 0.00
0.02 0.01 0.00 0.00 0.00 0.00 0.00 0.00 0.00 0.00 0.00 0.00 0.01 0.01 0.01 0.01 0.01 0.00 0.00 0.00 0.00 0.00 0.00 0.00 0.00 0.00 0.00 0.00 0.00 0.00 0.00 0.00 0.00 0.00 0.00 0.00 0.00 0.00 0.00 0.00 0.00 0.00 0.00 0.00
0.03 0.02 0.01 0.01 0.00 0.00 0.00 0.00 0.00 0.00 0.00 0.00 0.00 0.00 0.01 0.01 0.01 0.00 0.00 0.00 0.00 0.00 0.00 0.00 0.00 0.00 0.00 0.00 0.00 0.00 0.00 0.00 0.00 0.00 0.00 0.00 0.00 0.00 0.00 0.00 0.00 0.00 0.00 0.00
0.03 0.02 0.01 0.01 0.01 0.01 0.01 0.01 0.01 0.01 0.01 0.01 0.00 0.00 0.01 0.01 0.01 0.01 0.01 0.01 0.01 0.00 0.00 0.00 0.00 0.00 0.00 0.00 0.00 0.00 0.00 0.00 0.00 0.00 0.00 0.00 0.00 0.00 0.00 0.00 0.00 0.00 0.00 0.00
0.02 0.02 0.01 0.01 0.00 0.01 0.01 0.01 0.01 0.01 0.01 0.01 0.01 0.01 0.01 0.01 0.01 0.01 0.01 0.01 0.01 0.01 0.01 0.01 0.00 0.00 0.00 0.00 0.00 0.00 0.00 0.00 0.00 0.01 0.01 0.00 0.01 0.01 0.01 0.01 0.00 0.00 0.00 0.00
0.02 0.02 0.01 0.01 0.01 0.01 0.01 0.01 0.01 0.01 0.01 0.01 0.01 0.00 0.00 0.01 0.01 0.01 0.01 0.01 0.01 0.01 0.01 0.01 0.00 0.00 0.01 0.01 0.00 0.00 0.01 0.01 0.01 0.01 0.01 0.01 0.01 0.01 0.01 0.01 0.01 0.00 0.00 0.00
0.02 0.02 0.02 0.03 0.02 0.02 0.02 0.02 0.01 0.01 0.01 0.01 0.01 0.01 0.01 0.01 0.01 0.01 0.01 0.01 0.01 0.01 0.01 0.00 0.00 0.01 0.01 0.01 0.00 0.01 0.01 0.01 0.00 0.01 0.01 0.01 0.01 0.01 0.01 0.01 0.01 0.00 0.00 0.00
0.02 0.02 0.02 0.03 0.03 0.03 0.02 0.02 0.02 0.01 0.01 0.01 0.01 0.01 0.01 0.01 0.01 0.01 0.01 0.01 0.01 0.01 0.01 0.01 0.01 0.01 0.01 0.01 0.01 0.01 0.01 0.01 0.01 0.01 0.01 0.01 0.02 0.02 0.01 0.01 0.01 0.01 0.00 0.00
0.03 0.03 0.02 0.02 0.03 0.03 0.02 0.02 0.02 0.01 0.01 0.01 0.01 0.01 0.01 0.01 0.01 0.02 0.02 0.01 0.01 0.01 0.01 0.01 0.01 0.01 0.01 0.01 0.01 0.01 0.01 0.01 0.02 0.01 0.01 0.02 0.02 0.01 0.01 0.01 0.01 0.01 0.00 0.00
0.02 0.02 0.02 0.03 0.03 0.03 0.02 0.01 0.01 0.01 0.01 0.01 0.01 0.02 0.02 0.03 0.04 0.03 0.03 0.03 0.02 0.01 0.01 0.01 0.01 0.01 0.01 0.01 0.01 0.01 0.01 0.01 0.02 0.02 0.02 0.02 0.01 0.01 0.01 0.00 0.00 0.00 0.00 0.00
0.04 0.04 0.03 0.03 0.03 0.02 0.01 0.01 0.00 0.00 0.00 0.00 0.01 0.01 0.02 0.03 0.03 0.03 0.02 0.02 0.01 0.01 0.01 0.01 0.01 0.01 0.01 0.01 0.01 0.01 0.01 0.01 0.01 0.02 0.01 0.01 0.01 0.00 0.00 0.00 0.00 0.00 0.00 0.00
0.04 0.03 0.03 0.03 0.03 0.02 0.02 0.01 0.01 0.01 0.01 0.00 0.00 0.01 0.01 0.01 0.01 0.01 0.00 0.00 0.00 0.00 0.00 0.00 0.00 0.00 0.00 0.00 0.00 0.00 0.00 0.00 0.00 0.00 0.00 0.00 0.00 0.00 0.00 0.00 0.00 0.00 0.00 0.01
0.01 0.01 0.01 0.02 0.02 0.03 0.03 0.03 0.02 0.01 0.01 0.01 0.01 0.01 0.01 0.01 0.00 0.00 0.00 0.00 0.00 0.00 0.00 0.00 0.00 0.00 0.00 0.00 0.00 0.00 0.00 0.00 0.00 0.00 0.00 0.00 0.00 0.00 0.00 0.00 0.00 0.00 0.01 0.01
0.01 0.01 0.01 0.01 0.02 0.02 0.02 0.02 0.02 0.01 0.01 0.01 0.01 0.01 0.00 0.00 0.00 0.00 0.00 0.00 0.01 0.01 0.01 0.01 0.01 0.00 0.00 0.00 0.00 0.01 0.01 0.01 0.01 0.01 0.01 0.00 0.00 0.00 0.00 0.00 0.00 0.01 0.01 0.02
0.00 0.01 0.01 0.01 0.01 0.01 0.01 0.01 0.01 0.01 0.01 0.01 0.01 0.00 0.00 0.00 0.00 0.00 0.00 0.00 0.01 0.01 0.01 0.01 0.01 0.01 0.00 0.00 0.00 0.00 0.00 0.00 0.00 0.00 0.00 0.00 0.01 0.01 0.01 0.01 0.01 0.01 0.02 0.02
0.01 0.01 0.02 0.03 0.02 0.02 0.02 0.03 0.02 0.02 0.01 0.01 0.01 0.01 0.00 0.01 0.01 0.01 0.00 0.00 0.00 0.01 0.01 0.01 0.01 0.01 0.01 0.01 0.01 0.01 0.01 0.00 0.00 0.00 0.01 0.01 0.01 0.01 0.02 0.02 0.02 0.02 0.02 0.02
0.01 0.01 0.01 0.01 0.02 0.02 0.03 0.03 0.02 0.02 0.01 0.01 0.00 0.00 0.00 0.00 0.01 0.01 0.00 0.00 0.00 0.00 0.00 0.01 0.01 0.01 0.02 0.02 0.03 0.03 0.03 0.02 0.01 0.01 0.00 0.01 0.01 0.01 0.01 0.01 0.01 0.02 0.03 0.03
0.01 0.01 0.00 0.00 0.00 0.01 0.02 0.02 0.03 0.03 0.02 0.01 0.00 0.00 0.00 0.00 0.00 0.00 0.00 0.00 0.00 0.00 0.00 0.00 0.00 0.00 0.00 0.00 0.01 0.01 0.01 0.01 0.01 0.01 0.01 0.01 0.01 0.01 0.01 0.01 0.01 0.02 0.02 0.02
0.00 0.00 0.01 0.01 0.00 0.00 0.01 0.01 0.02 0.04 0.04 0.04 0.02 0.01 0.01 0.00 0.00 0.00 0.01 0.01 0.00 0.00 0.00 0.00 0.00 0.00 0.00 0.00 0.00 0.00 0.00 0.00 0.01 0.01 0.01 0.01 0.01 0.01 0.01 0.01 0.01 0.02 0.02 0.02
MSLP
1008.78 1008.83 1008.87 1008.89 1008.88 1008.82 1008.71 1008.53 1008.28 1007.97 1007.62 1007.27 1006.97 1006.75 1006.67 1006.74 1006.99 1007.41 1007.99 1008.68 1009.46 1010.28 1011.11 1011.91 1012.66 1013.35 1013.99 1014.55 1015.05 1015.50 1015.89 1016.22 1016.50 1016.74 1016.93 1017.08 1017.20 1017.31 1017.41 1017.50 1017.59 1017.67 1017.74 1017.79
1008.72 1008.69 1008.62 1008.52 1008.38 1008.19 1007.97 1007.70 1007.40 1007.08 1006.76 1006.46 1006.23 1006.10 1006.09 1006.22 1006.51 1006.94 1007.51 1008.19 1008.94 1009.74 1010.55 1011.34 1012.10 1012.81 1013.47 1014.07 1014.60 1015.07 1015.49 1015.84 1016.14 1016.38 1016.59 1016.76 1016.90 1017.03 1017.15 1017.27 1017.38 1017.47 1017.54 1017.59
1008.60 1008.50 1008.34 1008.13 1007.88 1007.59 1007.27 1006.93 1006.59 1006.27 1005.98 1005.74 1005.58 1005.53 1005.58 1005.77 1006.09 1006.53 1007.08 1007.73 1008.45 1009.21 1009.99 1010.77 1011.53 1012.25 1012.94 1013.57 1014.13 1014.64 1015.08 1015.46 1015.77 1016.03 1016.24 1016.41 1016.57 1016.70 1016.83 1016.95 1017.06 1017.16 1017.23 1017.27
1008.41 1008.25 1008.02 1007.73 1007.39 1007.01 1006.63 1006.25 1005.90 1005.59 1005.34 1005.16 1005.07 1005.08 1005.20 1005.43 1005.77 1006.20 1006.73 1007.34 1008.00 1008.72 1009.45 1010.21 1010.96 1011.69 1012.39 1013.05 1013.65 1014.19 1014.66 1015.06 1015.39 1015.65 1015.86 1016.03 1016.17 1016.29 1016.41 1016.52 1016.62 1016.71 1016.77 1016.81
1008.16 1007.94 1007.65 1007.30 1006.91 1006.49 1006.08 1005.69 1005.35 1005.07 1004.87 1004.75 1004.73 1004.80 1004.97 1005.22 1005.56 1005.98 1006.47 1007.02 1007.62 1008.27 1008.96 1009.67 1010.39 1011.12 1011.83 1012.51 1013.14 1013.71 1014.21 1014.62 1014.96 1015.23 1015.43 1015.58 1015.70 1015.79 1015.88 1015.97 1016.04 1016.12 1016.18 1016.21
1007.85 1007.58 1007.25 1006.87 1006.46 1006.04 1005.63 1005.27 1004.96 1004.73 1004.59 1004.53 1004.57 1004.69 1004.89 1005.15 1005.48 1005.86 1006.29 1006.77 1007.30 1007.88 1008.50 1009.16 1009.85 1010.55 1011.26 1011.95 1012.59 1013.18 1013.70 1014.13 1014.47 1014.74 1014.93 1015.06 1015.14 1015.21 1015.27 1015.32 1015.37 1015.43 1015.48 1015.52
1007.51 1007.20 1006.85 1006.46 1006.06 1005.66 1005.30 1004.99 1004.75 1004.58 1004.51 1004.51 1004.59 1004.75 1004.95 1005.21 1005.51 1005.84 1006.20 1006.60 1007.04 1007.54 1008.08 1008.67 1009.31 1009.98 1010.67 1011.36 1012.01 1012.61 1013.13 1013.57 1013.92 1014.18 1014.35 1014.46 1014.53 1014.56 1014.59 1014.61 1014.64 1014.69 1014.73 1014.78
1007.17 1006.82 1006.46 1006.09 1005.72 1005.39 1005.10 1004.86 1004.70 1004.61 1004.60 1004.66 1004.78 1004.95 1005.15 1005.38 1005.63 1005.89 1006.18 1006.49 1006.85 1007.25 1007.71 1008.24 1008.81 1009.44 1010.10 1010.76 1011.40 1011.99 1012.52 1012.96 1013.30 1013.55 1013.72 1013.81 1013.86 1013.88 1013.88 1013.89 1013.90 1013.94 1013.98 1014.04
1006.84 1006.48 1006.12 1005.79 1005.49 1005.23 1005.03 1004.89 1004.81 1004.80 1004.85 1004.95 1005.09 1005.26 1005.44 1005.63 1005.82 1006.02 1006.23 1006.46 1006.73 1007.04 1007.42 1007.87 1008.39 1008.96 1009.56 1010.19 1010.80 1011.37 1011.88 1012.30 1012.64 1012.88 1013.04 1013.13 1013.16 1013.17 1013.16 1013.17 1013.18 1013.21 1013.27 1013.33
1006.55 1006.19 1005.86 1005.58 1005.36 1005.19 1005.09 1005.04 1005.06 1005.12 1005.22 1005.35 1005.50 1005.65 1005.80 1005.95 1006.08 1006.21 1006.34 1006.50 1006.69 1006.94 1007.25 1007.63 1008.07 1008.58 1009.13 1009.70 1010.26 1010.78 1011.26 1011.65 1011.96 1012.19 1012.33 1012.41 1012.45 1012.45 1012.45 1012.46 1012.48 1012.52 1012.58 1012.65
1006.30 1005.96 1005.69 1005.48 1005.35 1005.29 1005.28 1005.33 1005.42 1005.54 1005.68 1005.82 1005.97 1006.10 1006.22 1006.32 1006.40 1006.47 1006.55 1006.66 1006.79 1006.98 1007.23 1007.54 1007.92 1008.36 1008.84 1009.34 1009.82 1010.29 1010.69 1011.04 1011.30 1011.50 1011.62 1011.69 1011.71 1011.72 1011.73 1011.74 1011.78 1011.83 1011.90 1011.97
1006.09 1005.81 1005.61 1005.49 1005.46 1005.49 1005.58 1005.72 1005.87 1006.04 1006.21 1006.36 1006.49 1006.60 1006.69 1006.75 1006.79 1006.83 1006.88 1006.95 1007.05 1007.20 1007.41 1007.67 1007.99 1008.35 1008.75 1009.15 1009.55 1009.91 1010.23 1010.49 1010.69 1010.83 1010.91 1010.95 1010.97 1010.97 1010.98 1011.01 1011.05 1011.11 1011.18 1011.26
1005.91 1005.71 1005.60 1005.59 1005.66 1005.79 1005.97 1006.17 1006.39 1006.59 1006.77 1006.93 1007.05 1007.15 1007.21 1007.25 1007.28 1007.31 1007.35 1007.41 1007.50 1007.63 1007.80 1008.02 1008.28 1008.56 1008.86 1009.16 1009.44 1009.69 1009.89 1010.05 1010.15 1010.21 1010.23 1010.23 1010.21 1010.20 1010.21 1010.23 1010.27 1010.34 1010.40 1010.47
1005.74 1005.64 1005.65 1005.75 1005.92 1006.15 1006.40 1006.67 1006.93 1007.16 1007.36 1007.53 1007.65 1007.73 1007.79 1007.84 1007.87 1007.91 1007.96 1008.03 1008.12 1008.25 1008.40 1008.57 1008.77 1008.97 1009.16 1009.34 1009.49 1009.60 1009.67 1009.70 1009.69 1009.65 1009.59 1009.52 1009.47 1009.42 1009.40 1009.41 1009.44 1009.49 1009.55 1009.60
1005.58 1005.61 1005.74 1005.94 1006.21 1006.53 1006.85 1007.18 1007.47 1007.74 1007.96 1008.13 1008.26 1008.36 1008.43 1008.50 1008.55 1008.62 1008.69 1008.78 1008.89 1009.01 1009.14 1009.27 1009.40 1009.51 1009.60 1009.65 1009.66 1009.63 1009.56 1009.45 1009.32 1009.17 1009.02 1008.87 1008.75 1008.66 1008.61 1008.58 1008.59 1008.61 1008.64 1008.66
1005.45 1005.61 1005.85 1006.16 1006.52 1006.91 1007.29 1007.66 1008.00 1008.29 1008.53 1008.73 1008.89 1009.01 1009.11 1009.21 1009.30 1009.39 1009.50 1009.61 1009.73 1009.85 1009.95 1010.04 1010.10 1010.12 1010.10 1010.03 1009.91 1009.74 1009.53 1009.29 1009.03 1008.77 1008.53 1008.30 1008.11 1007.97 1007.86 1007.79 1007.76 1007.74 1007.73 1007.71
1005.38 1005.66 1006.00 1006.40 1006.84 1007.28 1007.71 1008.12 1008.49 1008.81 1009.08 1009.31 1009.50 1009.66 1009.80 1009.93 1010.06 1010.19 1010.32 1010.44 1010.56 1010.66 1010.74 1010.77 1010.76 1010.70 1010.58 1010.40 1010.16 1009.87 1009.54 1009.19 1008.83 1008.48 1008.15 1007.85 1007.59 1007.38 1007.22 1007.10 1007.01 1006.94 1006.87 1006.80
1005.42 1005.79 1006.22 1006.68 1007.16 1007.65 1008.11 1008.55 1008.94 1009.29 1009.60 1009.86 1010.08 1010.28 1010.46 1010.62 1010.78 1010.93 1011.07 1011.19 1011.30 1011.37 1011.40 1011.38 1011.31 1011.17 1010.96 1010.69 1010.36 1009.99 1009.58 1009.15 1008.71 1008.29 1007.89 1007.53 1007.22 1006.96 1006.74 1006.55 1006.40 1006.27 1006.14 1006.00
1005.61 1006.05 1006.52 1007.02 1007.53 1008.03 1008.51 1008.96 1009.37 1009.74 1010.07 1010.36 1010.62 1010.84 1011.05 1011.23 1011.40 1011.55 1011.68 1011.79 1011.86 1011.89 1011.87 1011.80 1011.66 1011.46 1011.20 1010.87 1010.49 1010.07 1009.61 1009.14 1008.67 1008.21 1007.78 1007.38 1007.03 1006.72 1006.45 1006.21 1005.99 1005.79 1005.59 1005.37
1006.00 1006.47 1006.96 1007.46 1007.97 1008.46 1008.93 1009.37 1009.78 1010.16 1010.50 1010.81 1011.08 1011.32 1011.54 1011.73 1011.89 1012.02 1012.12 1012.19 1012.21 1012.20 1012.13 1012.01 1011.83 1011.59 1011.29 1010.94 1010.55 1010.11 1009.65 1009.18 1008.70 1008.24 1007.80 1007.39 1007.01 1006.67 1006.35 1006.06 1005.79 1005.52 1005.24 1004.95
1006.60 1007.06 1007.54 1008.01 1008.48 1008.94 1009.38 1009.80 1010.20 1010.57 1010.90 1011.21 1011.48 1011.71 1011.92 1012.09 1012.22 1012.31 1012.37 1012.39 1012.37 1012.30 1012.19 1012.03 1011.83 1011.57 1011.27 1010.93 1010.55 1010.14 1009.71 1009.26 1008.81 1008.37 1007.95 1007.54 1007.15 1006.79 1006.44 1006.11 1005.77 1005.44 1005.10 1004.74
1007.38 1007.81 1008.24 1008.67 1009.09 1009.49 1009.89 1010.26 1010.62 1010.96 1011.27 1011.55 1011.80 1012.01 1012.19 1012.32 1012.41 1012.45 1012.46 1012.43 1012.36 1012.25 1012.11 1011.93 1011.72 1011.48 1011.20 1010.89 1010.55 1010.19 1009.81 1009.41 1009.00 1008.60 1008.19 1007.80 1007.41 1007.03 1006.66 1006.29 1005.92 1005.53 1005.13 1004.71
1008.28 1008.66 1009.04 1009.40 1009.75 1010.09 1010.42 1010.74 1011.05 1011.34 1011.61 1011.85 1012.06 1012.23 1012.36 1012.45 1012.48 1012.48 1012.44 1012.36 1012.26 1012.12 1011.97 1011.79 1011.59 1011.38 1011.14 1010.88 1010.60 1010.30 1009.97 1009.63 1009.27 1008.90 1008.52 1008.14 1007.76 1007.37 1006.98 1006.59 1006.18 1005.75 1005.31 1004.84
1009.21 1009.53 1009.84 1010.13 1010.41 1010.69 1010.95 1011.21 1011.46 1011.70 1011.92 1012.12 1012.28 1012.40 1012.48 1012.51 1012.51 1012.46 1012.38 1012.27 1012.14 1012.00 1011.85 1011.70 1011.53 1011.36 1011.18 1010.97 1010.75 1010.50 1010.23 1009.93 1009.61 1009.27 1008.91 1008.54 1008.15 1007.76 1007.36 1006.94 1006.51 1006.06 1005.59 1005.09
1010.05 1010.32 1010.57 1010.81 1011.03 1011.24 1011.45 1011.65 1011.85 1012.04 1012.21 1012.35 1012.46 1012.54 1012.57 1012.57 1012.52 1012.45 1012.35 1012.23 1012.10 1011.97 1011.85 1011.72 1011.60 1011.48 1011.35 1011.20 1011.03 1010.83 1010.59 1010.33 1010.03 1009.70 1009.34 1008.97 1008.58 1008.18 1007.76 1007.33 1006.89 1006.42 1005.94 1005.42
1010.72 1010.95 1011.16 1011.35 1011.53 1011.70 1011.87 1012.03 1012.19 1012.33 1012.47 1012.57 1012.65 1012.69 1012.69 1012.66 1012.60 1012.51 1012.41 1012.30 1012.19 1012.09 1012.00 1011.92 1011.85 1011.77 1011.69 1011.58 1011.45 1011.27 1011.06 1010.81 1010.51 1010.17 1009.81 1009.43 1009.02 1008.61 1008.18 1007.75 1007.30 1006.83 1006.34 1005.83
1011.16 1011.37 1011.56 1011.73 1011.89 1012.04 1012.19 1012.33 1012.47 1012.60 1012.71 1012.80 1012.86 1012.88 1012.87 1012.84 1012.78 1012.70 1012.61 1012.53 1012.45 1012.39 1012.34 1012.31 1012.27 1012.24 1012.19 1012.11 1012.00 1011.83 1011.62 1011.36 1011.05 1010.70 1010.32 1009.91 1009.49 1009.06 1008.63 1008.19 1007.74 1007.27 1006.79 1006.28
Thickness
5757 5766 5768 5766 5767 5766 5761 5765 5761 5768 5774 5781 5785 5784 5783 5781 5777 5773 5768 5764 5761 5756 5753 5749 5745 5741 5738 5734 5730 5725 5720 5715 5711 5708 5704 5700 5697 5694 5690 5687 5685 5681 5678 5675
5745 5758 5760 5758 5765 5767 5766 5768 5769 5770 5774 5792 5792 5790 5784 5781 5777 5773 5770 5767 5764 5759 5755 5750 5747 5743 5738 5734 5730 5725 5719 5715 5711 5707 5703 5699 5696 5692 5689 5685 5682 5679 5676 5673
5733 5750 5749 5744 5763 5766 5768 5774 5772 5766 5777 5788 5784 5782 5780 5780 5778 5776 5774 5771 5767 5763 5758 5753 5750 5745 5739 5735 5729 5723 5719 5715 5711 5706 5702 5698 5695 5691 5687 5684 5680 5677 5674 5671
5727 5730 5717 5757 5779 5776 5771 5775 5780 5779 5782 5783 5782 5783 5785 5785 5781 5778 5778 5774 5770 5766 5761 5756 5751 5745 5740 5734 5728 5722 5718 5714 5710 5705 5701 5697 5692 5689 5685 5682 5678 5675 5672 5669
5720 5720 5732 5755 5765 5766 5761 5764 5777 5775 5777 5779 5782 5780 5782 5786 5785 5783 5781 5778 5774 5769 5764 5757 5751 5745 5738 5732 5726 5721 5717 5713 5709 5704 5699 5694 5690 5686 5683 5679 5676 5673 5670 5667
5715 5712 5717 5746 5762 5768 5760 5751 5769 5770 5768 5771 5772 5767 5777 5784 5783 5781 5780 5777 5773 5769 5763 5755 5749 5743 5735 5730 5725 5720 5717 5713 5708 5703 5698 5693 5689 5685 5681 5677 5674 5671 5669 5666
5708 5710 5730 5749 5757 5757 5737 5743 5758 5763 5764 5766 5766 5772 5777 5780 5779 5778 5775 5773 5769 5764 5758 5752 5747 5740 5732 5728 5723 5721 5716 5710 5705 5700 5695 5691 5686 5682 5678 5674 5671 5667 5665 5663
5706 5703 5715 5744 5747 5741 5741 5750 5755 5758 5761 5762 5765 5768 5771 5772 5771 5770 5768 5766 5763 5757 5751 5747 5742 5735 5729 5725 5723 5718 5712 5706 5701 5696 5692 5689 5682 5678 5674 5670 5667 5664 5661 5659
5711 5715 5726 5736 5736 5740 5743 5743 5748 5753 5756 5758 5760 5761 5763 5763 5763 5763 5762 5759 5757 5751 5745 5740 5736 5732 5726 5722 5719 5713 5706 5701 5696 5692 5688 5684 5679 5675 5671 5667 5665 5664 5662 5659
5706 5718 5723 5728 5732 5735 5738 5740 5745 5749 5752 5753 5753 5755 5754 5754 5754 5754 5754 5751 5749 5744 5738 5733 5730 5727 5723 5718 5713 5707 5701 5696 5691 5687 5683 5679 5676 5673 5670 5667 5664 5662 5658 5655
5700 5710 5716 5720 5723 5727 5732 5737 5740 5744 5746 5747 5746 5746 5746 5746 5746 5746 5745 5743 5741 5737 5733 5728 5724 5720 5718 5713 5707 5701 5696 5691 5687 5684 5681 5677 5673 5670 5668 5664 5661 5655 5653 5651
5694 5702 5706 5709 5716 5721 5724 5727 5730 5734 5737 5739 5739 5738 5738 5738 5738 5737 5736 5734 5731 5728 5725 5721 5717 5713 5710 5707 5702 5696 5690 5686 5684 5681 5677 5673 5670 5666 5662 5656 5652 5646 5641 5637
5693 5699 5703 5707 5712 5715 5718 5720 5723 5725 5727 5728 5729 5730 5730 5728 5728 5727 5726 5724 5721 5719 5716 5712 5708 5704 5701 5698 5694 5689 5685 5681 5679 5676 5672 5667 5664 5660 5657 5652 5645 5641 5636 5630
5689 5693 5694 5699 5703 5707 5710 5713 5716 5716 5717 5718 5719 5719 5719 5718 5717 5716 5714 5714 5713 5710 5707 5703 5699 5695 5692 5689 5685 5681 5678 5673 5670 5667 5665 5661 5657 5654 5651 5647 5643 5642 5636 5628
5683 5687 5689 5692 5696 5699 5702 5704 5704 5704 5705 5706 5707 5707 5707 5706 5705 5704 5703 5703 5701 5698 5695 5692 5688 5684 5683 5679 5675 5672 5669 5667 5663 5660 5657 5654 5651 5647 5643 5639 5636 5633 5631 5628
5675 5679 5682 5683 5685 5688 5691 5691 5691 5691 5692 5693 5694 5694 5694 5694 5693 5692 5692 5691 5687 5684 5682 5679 5676 5674 5671 5668 5665 5662 5659 5654 5651 5651 5649 5646 5642 5638 5634 5631 5627 5624 5621 5619
5666 5668 5670 5671 5673 5676 5678 5680 5680 5679 5680 5681 5681 5681 5681 5680 5679 5678 5677 5675 5674 5672 5670 5668 5665 5663 5661 5658 5655 5653 5651 5647 5640 5641 5640 5636 5632 5628 5625 5621 5618 5616 5613 5611
5660 5661 5663 5663 5663 5664 5665 5667 5669 5669 5668 5669 5670 5669 5668 5666 5664 5663 5662 5661 5659 5658 5656 5655 5654 5652 5649 5646 5643 5643 5641 5639 5635 5632 5629 5625 5622 5619 5616 5613 5610 5606 5604 5600
5649 5650 5652 5653 5654 5654 5654 5654 5655 5656 5657 5657 5657 5655 5655 5653 5652 5650 5650 5648 5647 5644 5642 5642 5638 5639 5638 5634 5631 5630 5630 5627 5625 5622 5618 5612 5610 5608 5605 5602 5599 5595 5592 5589
5637 5638 5639 5640 5641 5641 5641 5642 5643 5643 5643 5644 5643 5642 5641 5640 5640 5638 5637 5636 5635 5634 5632 5630 5629 5628 5626 5624 5619 5621 5619 5617 5614 5611 5608 5604 5600 5596 5593 5590 5586 5582 5579 5575
5624 5626 5626 5626 5626 5627 5628 5629 5630 5629 5630 5631 5631 5629 5628 5627 5627 5627 5626 5624 5621 5620 5620 5617 5618 5616 5615 5611 5607 5610 5608 5605 5602 5598 5595 5591 5587 5583 5580 5576 5573 5569 5566 5562
5612 5613 5614 5615 5615 5615 5616 5617 5618 5618 5618 5618 5618 5617 5616 5616 5616 5615 5613 5612 5610 5606 5609 5610 5607 5601 5599 5596 5599 5597 5594 5591 5588 5585 5582 5578 5574 5570 5566 5562 5559 5556 5553 5550
5600 5601 5603 5603 5604 5604 5605 5606 5606 5606 5606 5605 5605 5605 5606 5605 5606 5605 5602 5601 5600 5594 5595 5595 5589 5584 5580 5584 5586 5584 5581 5577 5574 5571 5568 5564 5560 5556 5552 5549 5546 5543 5540 5537
5589 5590 5591 5592 5593 5593 5593 5594 5595 5595 5595 5595 5595 5594 5594 5594 5593 5593 5591 5585 5583 5581 5583 5578 5573 5570 5567 5573 5573 5571 5568 5564 5561 5557 5554 5550 5547 5543 5539 5535 5532 5530 5527 5524
5579 5579 5580 5581 5582 5583 5582 5583 5583 5583 5585 5585 5585 5584 5584 5583 5581 5580 5578 5575 5571 5570 5572 5568 5562 5559 5560 5562 5560 5558 5554 5551 5547 5542 5538 5535 5532 5529 5526 5522 5519 5516 5514 5511
5568 5569 5569 5569 5571 5572 5574 5574 5574 5574 5574 5572 5572 5572 5572 5571 5569 5568 5566 5565 5563 5558 5559 5558 5555 5551 5551 5549 5546 5543 5539 5535 5532 5529 5525 5522 5519 5516 5513 5510 5507 5504 5502 5500
5560 5561 5561 5562 5563 5563 5563 5563 5563 5562 5561 5560 5559 5559 5559 5558 5557 5555 5554 5553 5551 5549 5547 5545 5543 5541 5539 5536 5532 5528 5525 5521 5517 5514 5511 5509 5506 5503 5501 5498 5496 5494 5492 5491